User: anonymous   Login
Location: Melita
(38.4566°N, 122.6369°W)
Time: 12:46:53
(UTC+00:00)
Language:

STARLINK-1061 - Orbit

View from above orbital plane
View from above orbital plane
View from above satellite
View from above satellite

Ground track
Ground track

The orbit data is extracted from the following two-line orbital elements,

1 44766C 19074BF  20089.19509823 -.00001335  00000-0 -91375-4 0   897
2 44766  53.0156 254.7637 0001797  92.7651 244.2745 15.05596046    17
Epoch (UTC): 29 March 2020 04:40:56
Eccentricity: 0.0001797
inclination: 53.0156°
perigee height: 548 km
apogee height: 551 km
right ascension of ascending node: 254.7637°
argument of perigee: 92.7651°
revolutions per day: 15.05596046
mean anomaly at epoch: 244.2745°
orbit number at epoch: 1

The dashed part of the orbit path shows where the satellite is in the earth's shadow,  

DLR